Regional Weather Roundup
Issued by NWS

Home | Current Version | Previous Version | Text Only | Print | Product List | Glossary Off
Versions: 1 2 3 4 5 6 7 8 9 10 11 12 13 14 15 16 17 18 19 20 21 22 23 24 25 26 27 28 29 30 31 32 33 34 35 36 37 38 39 40 41 42 43 44 45 46 47 48 49 50

000
ASUS45 KABQ 310710
RWRNM
WEATHER ROUNDUP FOR NEW MEXICO
NATIONAL WEATHER SERVICE ALBUQUERQUE NM
100 AM MDT THU JUL 31 2014

NOTE: "FAIR" MEANS FEW OR NO CLOUDS BELOW 12,000 FEET AGL WITH NO
       SIGNIFICANT WEATHER OR OBSTRUCTIONS TO VISION.

      THIS PRODUCT IS RELEASED AS TWO VERSIONS.  ONE VERSION NEAR
      THE TOP OF THE HOUR CONTAINING PRELIMINARY DATA FROM ALBUQUERQUE
      AND OTHER STATIONS.  A FINAL VERSION WITH ADDITIONAL DATA IS
      ISSUED ABOUT 10 MINUTES AFTER THE HOUR.

NMZ501-503-504-510>518-310800-
NORTHWEST PLATEAU/NORTHCENTRAL MOUNTAINS

CITY           SKY/WX    TMP DP  RH WIND       PRES   REMARKS
FARMINGTON     CLEAR     69  47  45 N5        30.15F
LOS ALAMOS     CLOUDY    60  56  86 S15       30.38S
SANTA FE       PTCLDY    62  56  80 S14G24    30.33R
TAOS           MOCLDY    61  54  77 CALM      30.37S
ANGEL FIRE     CLOUDY    54  52  94 S3        30.47F

$$
NMZ402-403-502-505>509-310800-
WESTCENTRAL MOUNTAINS/SOUTHWEST MOUNTAINS

CITY           SKY/WX    TMP DP  RH WIND       PRES   REMARKS
GALLUP         PTCLDY    64  50  60 E5        30.25S
SILVER CITY    MOCLDY    73  54  49 E6        30.23S

$$
NMZ407-409-411-412-310800-
SOUTHERN DESERTS

CITY           SKY/WX    TMP DP  RH WIND       PRES   REMARKS
LORDSBURG      FAIR      73  50  43 CALM      30.11F
DEMING         LGT RAIN  72  61  68 E10       30.14R
LAS CRUCES     CLOUDY    77  57  49 E8        30.18F
HOLLOMAN AFB   TSTM      72  63  73 S13G29    30.18R
ALAMOGORDO     MOCLDY    72  59  64 S16G31    30.20R
T OR C         CLOUDY    72  60  66 E7        30.19R

$$
NMZ519>523-310800-
CENTRAL VALLEYS/CENTRAL HIGHLANDS

CITY           SKY/WX    TMP DP  RH WIND       PRES   REMARKS
ALBUQUERQUE    MOCLDY    68  58  70 E22       30.24S
DOUBLE EAGLE   CLOUDY    66  59  77 SW9       30.30R THUNDER
CLINES CORNERS CLOUDY    56  54  93 E16       30.39S FOG
BELEN          FAIR      69  62  78 S16       30.22F
SOCORRO        CLOUDY    70  53  54 CALM      30.23F

$$
NMZ524>526-539-540-310800-
SOUTHCENTRAL MOUNTAINS

CITY           SKY/WX    TMP DP  RH WIND       PRES   REMARKS
RUIDOSO        CLOUDY    59  57  94 S10       30.39F

$$
NMZ527>531-310800-
NORTHEAST HIGHLANDS/NORTHEAST PLAINS

CITY           SKY/WX    TMP DP  RH WIND       PRES   REMARKS
LAS VEGAS      CLOUDY    55  54  96 E9        30.41R
RATON          LGT RAIN  57  55  93 CALM      30.37F
CLAYTON        CLOUDY    60  56  86 NE6       30.32F

$$
NMZ532>537-310800-
EASTCENTRAL PLAINS

CITY           SKY/WX    TMP DP  RH WIND       PRES   REMARKS
TUCUMCARI      MOCLDY    64  58  80 NE5       30.27F
CANNON AFB     CLOUDY    63  62  94 NE15      30.26S
CLOVIS AIRPORT NOT AVBL

$$
NMZ028-029-538-310800-
SOUTHEAST PLAINS

CITY           SKY/WX    TMP DP  RH WIND       PRES   REMARKS
ROSWELL        CLOUDY    71  60  68 N8        30.22R
ARTESIA        CLOUDY    73  57  56 N13       30.20R
CARLSBAD       CLOUDY    74  63  68 N9        30.15R
HOBBS          CLOUDY    70  59  68 NE21G28   30.17F


$$



USA.gov is the U.S. government's official web portal to all federal, state and local government web resources and services.